| time (UTC) | temp F | wind direction | speed MPH | gust MPH | rain 1hr in | rain 24hr in | rain mn in | humidity % | barometer mb |
| 20260505054349 | 75 | 138 | 4.0 | 9.0 | 0.00 | 0.00 | 0.00 | 74 | 1006.5 |
| 20260505053847 | 75 | 106 | 3.0 | 6.0 | 0.00 | 0.00 | 0.00 | 74 | 1006.8 |
| 20260505053344 | 75 | 147 | 1.0 | 5.0 | 0.00 | 0.00 | 0.00 | 74 | 1006.7 |
| 20260505052841 | 75 | 148 | 2.0 | 3.0 | 0.00 | 0.00 | 0.00 | 73 | 1006.7 |
| 20260505052337 | 75 | 111 | 1.0 | 3.0 | 0.00 | 0.00 | 0.00 | 72 | 1006.8 |
| 20260505051835 | 76 | 189 | 1.0 | 6.0 | 0.00 | 0.00 | 0.00 | 72 | 1006.8 |
| 20260505051332 | 76 | 185 | 3.0 | 5.0 | 0.00 | 0.00 | 0.00 | 71 | 1006.8 |
| 20260505050830 | 76 | 205 | 3.0 | 8.0 | 0.00 | 0.00 | 0.00 | 71 | 1006.9 |
| 20260505050328 | 76 | 128 | 1.0 | 6.0 | 0.00 | 0.00 | 0.00 | 71 | 1007.0 |
| 20260505041758 | 76 | 145 | 1.0 | 2.0 | 0.00 | 0.00 | 0.00 | 72 | 1007.1 |
| 20260505041255 | 76 | 82 | 1.0 | 2.0 | 0.00 | 0.00 | 0.00 | 72 | 1007.1 |
| 20260505040753 | 75 | 254 | 1.0 | 2.0 | 0.00 | 0.00 | 0.00 | 72 | 1007.3 |
| 20260505040250 | 75 | 207 | 2.0 | 3.0 | 0.00 | 0.00 | 0.00 | 72 | 1007.0 |
| 20260505035747 | 75 | 62 | 1.0 | 7.0 | 0.00 | 0.00 | 0.00 | 72 | 1007.1 |
| 20260505035242 | 75 | 142 | 2.0 | 3.0 | 0.00 | 0.00 | 0.00 | 72 | 1007.1 |
| 20260505034739 | 75 | 186 | 1.0 | 1.0 | 0.00 | 0.00 | 0.00 | 73 | 1007.3 |
| 20260505034236 | 75 | 148 | 1.0 | 2.0 | 0.00 | 0.00 | 0.00 | 73 | 1007.4 |
| 20260505033733 | 75 | 130 | 1.0 | 3.0 | 0.00 | 0.00 | 0.00 | 73 | 1006.9 |
| 20260505033231 | 75 | 125 | 1.0 | 2.0 | 0.00 | 0.00 | 0.00 | 72 | 1006.9 |
| 20260505032729 | 75 | 134 | 2.0 | 5.0 | 0.00 | 0.00 | 0.00 | 72 | 1007.0 |
| 20260505032224 | 76 | 104 | 1.0 | 7.0 | 0.00 | 0.00 | 0.00 | 72 | 1007.1 |
| 20260505031722 | 76 | 138 | 3.0 | 6.0 | 0.00 | 0.00 | 0.00 | 72 | 1007.1 |
| 20260505031218 | 76 | 152 | 1.0 | 5.0 | 0.00 | 0.00 | 0.00 | 72 | 1006.9 |
| 20260505030715 | 76 | 89 | 1.0 | 7.0 | 0.00 | 0.00 | 0.00 | 72 | 1007.3 |
| 20260505030211 | 76 | 127 | 1.0 | 2.0 | 0.00 | 0.00 | 0.00 | 72 | 1007.1 |
| 20260505025707 | 76 | 157 | 1.0 | 5.0 | 0.00 | 0.00 | 0.00 | 71 | 1007.2 |
| 20260505025206 | 76 | 122 | 3.0 | 7.0 | 0.00 | 0.00 | 0.00 | 71 | 1007.2 |
| 20260505024703 | 76 | 100 | 1.0 | 3.0 | 0.00 | 0.00 | 0.00 | 72 | 1007.3 |
| 20260505024200 | 76 | 74 | 1.0 | 7.0 | 0.00 | 0.00 | 0.00 | 72 | 1007.3 |
| 20260505023657 | 76 | 100 | 1.0 | 3.0 | 0.00 | 0.00 | 0.00 | 72 | 1007.0 |
| 20260505023155 | 76 | 104 | 2.0 | 3.0 | 0.00 | 0.00 | 0.00 | 72 | 1007.0 |
| 20260505022652 | 76 | 152 | 1.0 | 5.0 | 0.00 | 0.00 | 0.00 | 71 | 1007.0 |
| 20260505022149 | 76 | 79 | 1.0 | 6.0 | 0.00 | 0.00 | 0.00 | 71 | 1007.0 |
| 20260505021645 | 76 | 75 | 2.0 | 5.0 | 0.00 | 0.00 | 0.00 | 71 | 1006.9 |
| 20260505021143 | 76 | 72 | 2.0 | 7.0 | 0.00 | 0.00 | 0.00 | 71 | 1007.1 |
| 20260505020638 | 76 | 166 | 1.0 | 3.0 | 0.00 | 0.00 | 0.00 | 71 | 1006.8 |
| 20260505020134 | 76 | 141 | 1.0 | 6.0 | 0.00 | 0.00 | 0.00 | 71 | 1007.0 |
| 20260505015632 | 76 | 109 | 1.0 | 3.0 | 0.00 | 0.00 | 0.00 | 71 | 1006.7 |
| 20260505015128 | 76 | 78 | 2.0 | 3.0 | 0.00 | 0.00 | 0.00 | 71 | 1006.8 |
| 20260505014625 | 76 | 140 | 0.0 | 6.0 | 0.00 | 0.00 | 0.00 | 70 | 1006.7 |
| 20260505014122 | 76 | 209 | 4.0 | 7.0 | 0.00 | 0.00 | 0.00 | 70 | 1006.6 |
| 20260505013619 | 76 | 128 | 2.0 | 2.0 | 0.00 | 0.00 | 0.00 | 70 | 1006.7 |
| 20260505013116 | 76 | 107 | 1.0 | 5.0 | 0.00 | 0.00 | 0.00 | 70 | 1006.9 |
| 20260505012615 | 76 | 107 | 1.0 | 3.0 | 0.00 | 0.00 | 0.00 | 70 | 1006.7 |
| 20260505012111 | 76 | 83 | 3.0 | 5.0 | 0.00 | 0.00 | 0.00 | 69 | 1006.6 |
| 20260505011607 | 76 | 67 | 2.0 | 3.0 | 0.00 | 0.00 | 0.00 | 70 | 1006.7 |
| 20260505011104 | 77 | 134 | 1.0 | 5.0 | 0.00 | 0.00 | 0.00 | 69 | 1006.6 |
| 20260505010559 | 77 | 143 | 2.0 | 3.0 | 0.00 | 0.00 | 0.00 | 69 | 1006.6 |
| 20260505010056 | 77 | 126 | 1.0 | 3.0 | 0.00 | 0.00 | 0.00 | 69 | 1006.6 |
| 20260505005552 | 77 | 121 | 2.0 | 7.0 | 0.00 | 0.00 | 0.00 | 69 | 1006.7 |
| 20260505005050 | 77 | 112 | 2.0 | 2.0 | 0.00 | 0.00 | 0.00 | 70 | 1006.6 |
| 20260505004547 | 77 | 120 | 1.0 | 3.0 | 0.00 | 0.00 | 0.00 | 69 | 1006.5 |
| 20260505004043 | 77 | 136 | 1.0 | 6.0 | 0.00 | 0.00 | 0.00 | 69 | 1006.6 |
| 20260505003541 | 77 | 91 | 3.0 | 6.0 | 0.00 | 0.00 | 0.00 | 69 | 1006.6 |
| 20260505003038 | 78 | 144 | 1.0 | 3.0 | 0.00 | 0.00 | 0.00 | 68 | 1006.5 |
| 20260505002537 | 78 | 62 | 2.0 | 3.0 | 0.00 | 0.00 | 0.00 | 67 | 1006.7 |
| 20260505002032 | 78 | 175 | 3.0 | 3.0 | 0.00 | 0.00 | 0.00 | 67 | 1006.7 |
| 20260505001529 | 78 | 114 | 1.0 | 3.0 | 0.00 | 0.00 | 0.00 | 67 | 1007.0 |
| 20260505001026 | 78 | 162 | 3.0 | 11.0 | 0.00 | 0.00 | 0.00 | 66 | 1006.8 |
| 20260505000523 | 79 | 130 | 0.0 | 2.0 | 0.00 | 0.00 | 0.00 | 66 | 1006.8 |
| 20260505000021 | 79 | 148 | 3.0 | 6.0 | 0.00 | 0.00 | 0.00 | 65 | 1006.8 |
| 20260504235517 | 79 | 141 | 1.0 | 2.0 | 0.00 | 0.00 | 0.00 | 65 | 1007.0 |
| 20260504235014 | 79 | 153 | 2.0 | 5.0 | 0.00 | 0.00 | 0.00 | 65 | 1006.9 |
| 20260504234511 | 79 | 121 | 1.0 | 8.0 | 0.00 | 0.00 | 0.00 | 65 | 1006.9 |
| 20260504234008 | 79 | 101 | 1.0 | 2.0 | 0.00 | 0.00 | 0.00 | 65 | 1007.1 |
| 20260504233503 | 79 | 138 | 2.0 | 6.0 | 0.00 | 0.00 | 0.00 | 65 | 1007.0 |
| 20260504233000 | 80 | 179 | 6.0 | 9.0 | 0.00 | 0.00 | 0.00 | 64 | 1007.1 |
| 20260504232457 | 80 | 179 | 2.0 | 5.0 | 0.00 | 0.00 | 0.00 | 65 | 1007.0 |
| 20260504231955 | 80 | 147 | 2.0 | 5.0 | 0.00 | 0.00 | 0.00 | 64 | 1007.0 |
| 20260504231451 | 80 | 110 | 2.0 | 6.0 | 0.00 | 0.00 | 0.00 | 63 | 1007.1 |
| 20260504230947 | 80 | 110 | 3.0 | 6.0 | 0.00 | 0.00 | 0.00 | 63 | 1007.2 |
| 20260504230444 | 81 | 156 | 2.0 | 3.0 | 0.00 | 0.00 | 0.00 | 62 | 1007.1 |
| 20260504225943 | 81 | 60 | 3.0 | 6.0 | 0.00 | 0.00 | 0.00 | 61 | 1007.0 |
| 20260504225439 | 80 | 68 | 0.0 | 5.0 | 0.00 | 0.00 | 0.00 | 61 | 1007.2 |
| 20260504224937 | 80 | 71 | 1.0 | 2.0 | 0.00 | 0.00 | 0.00 | 61 | 1007.1 |
| 20260504224433 | 81 | 180 | 3.0 | 6.0 | 0.00 | 0.00 | 0.00 | 60 | 1007.4 |
| 20260504223930 | 81 | 148 | 3.0 | 7.0 | 0.00 | 0.00 | 0.00 | 61 | 1007.5 |
| 20260504223426 | 82 | 148 | 4.0 | 6.0 | 0.00 | 0.00 | 0.00 | 60 | 1007.2 |
| 20260504222922 | 81 | 167 | 1.0 | 7.0 | 0.00 | 0.00 | 0.00 | 61 | 1007.4 |
| 20260504222420 | 81 | 159 | 3.0 | 5.0 | 0.00 | 0.00 | 0.00 | 60 | 1007.4 |
| 20260504221917 | 82 | 156 | 4.0 | 6.0 | 0.00 | 0.00 | 0.00 | 59 | 1007.4 |
| 20260504221414 | 82 | 159 | 3.0 | 6.0 | 0.00 | 0.00 | 0.00 | 58 | 1007.4 |
| 20260504220911 | 82 | 187 | 2.0 | 3.0 | 0.00 | 0.00 | 0.00 | 59 | 1007.3 |
| 20260504220408 | 82 | 190 | 2.0 | 8.0 | 0.00 | 0.00 | 0.00 | 59 | 1007.7 |
| 20260504215905 | 81 | 91 | 3.0 | 8.0 | 0.00 | 0.00 | 0.00 | 60 | 1007.5 |
| 20260504215401 | 81 | 62 | 2.0 | 7.0 | 0.00 | 0.00 | 0.00 | 60 | 1007.7 |
| 20260504214857 | 82 | 117 | 2.0 | 7.0 | 0.00 | 0.00 | 0.00 | 59 | 1007.6 |
| 20260504214354 | 83 | 166 | 1.0 | 6.0 | 0.00 | 0.00 | 0.00 | 58 | 1007.7 |
| 20260504213851 | 83 | 142 | 2.0 | 9.0 | 0.00 | 0.00 | 0.00 | 57 | 1007.8 |
| 20260504213347 | 83 | 149 | 1.0 | 3.0 | 0.00 | 0.00 | 0.00 | 57 | 1007.9 |
| 20260504212844 | 83 | 142 | 2.0 | 9.0 | 0.00 | 0.00 | 0.00 | 57 | 1007.8 |
| 20260504212340 | 84 | 112 | 3.0 | 7.0 | 0.00 | 0.00 | 0.00 | 57 | 1007.8 |
| 20260504211838 | 84 | 119 | 1.0 | 5.0 | 0.00 | 0.00 | 0.00 | 57 | 1008.1 |
| 20260504211334 | 84 | 181 | 2.0 | 8.0 | 0.00 | 0.00 | 0.00 | 56 | 1008.3 |
| 20260504210832 | 83 | 99 | 1.0 | 8.0 | 0.00 | 0.00 | 0.00 | 58 | 1008.1 |
| 20260504210329 | 83 | 170 | 4.0 | 8.0 | 0.00 | 0.00 | 0.00 | 58 | 1008.1 |
| 20260504205826 | 84 | 152 | 2.0 | 6.0 | 0.00 | 0.00 | 0.00 | 57 | 1008.4 |
| 20260504205323 | 84 | 187 | 2.0 | 5.0 | 0.00 | 0.00 | 0.00 | 56 | 1008.4 |
| 20260504204821 | 84 | 152 | 1.0 | 3.0 | 0.00 | 0.00 | 0.00 | 56 | 1008.5 |
| 20260504204320 | 84 | 132 | 2.0 | 6.0 | 0.00 | 0.00 | 0.00 | 56 | 1008.7 |
| 20260504203819 | 83 | 113 | 1.0 | 8.0 | 0.00 | 0.00 | 0.00 | 56 | 1008.7 |
| 20260504203315 | 84 | 177 | 1.0 | 3.0 | 0.00 | 0.00 | 0.00 | 57 | 1008.8 |
| 20260504202810 | 83 | 128 | 3.0 | 6.0 | 0.00 | 0.00 | 0.00 | 56 | 1008.7 |
| 20260504202308 | 84 | 247 | 3.0 | 5.0 | 0.00 | 0.00 | 0.00 | 54 | 1009.1 |
| 20260504201805 | 84 | 68 | 2.0 | 5.0 | 0.00 | 0.00 | 0.00 | 55 | 1009.2 |
| 20260504201302 | 83 | 184 | 5.0 | 10.0 | 0.00 | 0.00 | 0.00 | 54 | 1009.4 |
| 20260504200800 | 83 | 127 | 1.0 | 5.0 | 0.00 | 0.00 | 0.00 | 56 | 1009.5 |
| 20260504200256 | 82 | 71 | 1.0 | 8.0 | 0.00 | 0.00 | 0.00 | 57 | 1009.6 |
| 20260504195752 | 83 | 168 | 2.0 | 5.0 | 0.00 | 0.00 | 0.00 | 56 | 1009.8 |
| 20260504195248 | 82 | 136 | 2.0 | 3.0 | 0.00 | 0.00 | 0.00 | 57 | 1010.0 |
| 20260504194745 | 82 | 172 | 5.0 | 14.0 | 0.00 | 0.00 | 0.00 | 57 | 1010.0 |
| 20260504194241 | 82 | 152 | 1.0 | 8.0 | 0.00 | 0.00 | 0.00 | 57 | 1010.2 |
| 20260504193738 | 82 | 111 | 1.0 | 7.0 | 0.00 | 0.00 | 0.00 | 57 | 1010.2 |
| 20260504193235 | 82 | 203 | 4.0 | 6.0 | 0.00 | 0.00 | 0.00 | 57 | 1010.5 |
| 20260504192734 | 81 | 118 | 3.0 | 6.0 | 0.00 | 0.00 | 0.00 | 56 | 1010.5 |
| 20260504192231 | 82 | 148 | 3.0 | 3.0 | 0.00 | 0.00 | 0.00 | 58 | 1010.3 |
| 20260504191730 | 81 | 132 | 3.0 | 8.0 | 0.00 | 0.00 | 0.00 | 60 | 1010.7 |
| 20260504191226 | 81 | 185 | 3.0 | 10.0 | 0.00 | 0.00 | 0.00 | 57 | 1010.6 |
| 20260504190721 | 81 | 193 | 4.0 | 9.0 | 0.00 | 0.00 | 0.00 | 58 | 1010.9 |
| 20260504190218 | 81 | 128 | 5.0 | 8.0 | 0.00 | 0.00 | 0.00 | 58 | 1011.0 |
| 20260504185715 | 81 | 79 | 3.0 | 5.0 | 0.00 | 0.00 | 0.00 | 58 | 1011.0 |
| 20260504185212 | 81 | 183 | 3.0 | 5.0 | 0.00 | 0.00 | 0.00 | 57 | 1011.1 |
| 20260504184708 | 81 | 183 | 3.0 | 5.0 | 0.00 | 0.00 | 0.00 | 58 | 1011.2 |
| 20260504184203 | 81 | 117 | 2.0 | 6.0 | 0.00 | 0.00 | 0.00 | 59 | 1011.1 |
| 20260504183700 | 80 | 135 | 1.0 | 5.0 | 0.00 | 0.00 | 0.00 | 56 | 1011.4 |
| 20260504183157 | 80 | 202 | 2.0 | 3.0 | 0.00 | 0.00 | 0.00 | 58 | 1011.2 |
| 20260504182655 | 81 | 135 | 1.0 | 6.0 | 0.00 | 0.00 | 0.00 | 59 | 1011.5 |
| 20260504182152 | 81 | 158 | 2.0 | 7.0 | 0.00 | 0.00 | 0.00 | 58 | 1011.5 |
| 20260504181650 | 82 | 172 | 1.0 | 8.0 | 0.00 | 0.00 | 0.00 | 58 | 1011.6 |
| 20260504181147 | 80 | 199 | 3.0 | 5.0 | 0.00 | 0.00 | 0.00 | 58 | 1011.7 |
| 20260504180646 | 80 | 151 | 1.0 | 7.0 | 0.00 | 0.00 | 0.00 | 60 | 1011.8 |
| 20260504180144 | 79 | 181 | 4.0 | 8.0 | 0.00 | 0.00 | 0.00 | 59 | 1011.9 |
| 20260504175641 | 78 | 141 | 5.0 | 6.0 | 0.00 | 0.00 | 0.00 | 60 | 1011.8 |
| 20260504175137 | 80 | 92 | 5.0 | 7.0 | 0.00 | 0.00 | 0.00 | 58 | 1011.9 |
| 20260504174636 | 80 | 146 | 2.0 | 6.0 | 0.00 | 0.00 | 0.00 | 57 | 1012.2 |
| 20260504174132 | 79 | 270 | 1.0 | 8.0 | 0.00 | 0.00 | 0.00 | 59 | 1012.0 |
| 20260504173629 | 78 | 172 | 2.0 | 6.0 | 0.00 | 0.00 | 0.00 | 58 | 1012.1 |
| 20260504173127 | 79 | 154 | 3.0 | 5.0 | 0.00 | 0.00 | 0.00 | 60 | 1012.3 |
| 20260504172623 | 78 | 118 | 2.0 | 8.0 | 0.00 | 0.00 | 0.00 | 60 | 1012.4 |
| 20260504172120 | 79 | 148 | 1.0 | 5.0 | 0.00 | 0.00 | 0.00 | 58 | 1012.3 |
| 20260504171616 | 78 | 182 | 1.0 | 11.0 | 0.00 | 0.00 | 0.00 | 61 | 1012.4 |
| 20260504171114 | 78 | 192 | 3.0 | 10.0 | 0.00 | 0.00 | 0.00 | 60 | 1012.7 |
| 20260504170609 | 77 | 181 | 2.0 | 5.0 | 0.00 | 0.00 | 0.00 | 61 | 1012.5 |
| 20260504170107 | 77 | 209 | 3.0 | 9.0 | 0.00 | 0.00 | 0.00 | 60 | 1012.8 |
| 20260504150952 | 73 | 222 | 3.0 | 5.0 | 0.00 | 0.00 | 0.00 | 64 | 1014.1 |
| 20260504150450 | 73 | 254 | 1.0 | 8.0 | 0.00 | 0.00 | 0.00 | 64 | 1014.2 |
| 20260504140916 | 70 | 127 | 2.0 | 6.0 | 0.00 | 0.00 | 0.00 | 68 | 1014.6 |
| 20260504140412 | 70 | 190 | 4.0 | 7.0 | 0.00 | 0.00 | 0.00 | 68 | 1014.6 |
| 20260504130332 | 67 | 161 | 1.0 | 3.0 | 0.00 | 0.00 | 0.00 | 72 | 1014.9 |
| 20260504120255 | 63 | 132 | 0.0 | 2.0 | 0.00 | 0.00 | 0.00 | 78 | 1014.6 |
| 20260504110218 | 62 | 127 | 0.0 | 3.0 | 0.00 | 0.00 | 0.00 | 78 | 1014.7 |
| 20260504100137 | 62 | 107 | 2.0 | 3.0 | 0.00 | 0.00 | 0.00 | 76 | 1015.0 |
| 20260504081530 | 63 | 152 | 2.0 | 2.0 | 0.00 | 0.00 | 0.00 | 71 | 1015.5 |
| 20260504081025 | 63 | 173 | 1.0 | 5.0 | 0.00 | 0.00 | 0.00 | 71 | 1015.4 |
| 20260504080522 | 63 | 131 | 1.0 | 1.0 | 0.00 | 0.00 | 0.00 | 71 | 1015.3 |